Lapse_Rate
6.5 6.5 6.5 6.5 6.5 6.5 6.5 6.5 6.5 6.5 6.5 6.5 6.5 6.5 5.9 2.8 1.6 3.4 3.4 4.4 3.0 2.4 0.9 -1.1 -0.4 0.6 0.8 1.2 1.4 1.7 2.7 2.9 3.3 2.9 2.7 3.1 2.9 2.9 2.7 3.0 2.4 2.6 2.9 2.5
6.5 6.5 6.5 6.5 6.5 6.5 6.5 6.5 6.5 6.5 6.5 6.5 6.0 0.5 2.4 2.4 3.1 4.0 4.1 4.7 4.7 4.2 3.6 2.8 1.3 2.0 2.2 0.8 0.6 0.7 2.5 2.9 3.0 2.8 2.6 3.0 2.5 3.1 3.4 3.6 2.4 1.8 1.3 0.8
6.5 6.5 6.5 6.5 6.5 6.5 6.5 6.5 6.5 6.5 6.5 6.5 6.5 6.5 4.6 2.4 1.7 3.1 2.8 3.0 4.0 3.9 3.7 3.3 2.1 3.0 1.3 0.5 -0.3 0.4 1.6 2.9 3.2 3.1 3.1 2.9 2.6 2.4 3.1 2.8 2.5 1.7 1.9 1.1
6.5 6.5 6.5 6.5 6.5 6.5 6.5 6.5 6.5 6.5 6.5 6.5 6.1 2.8 2.6 0.2 0.5 -0.1 0.8 2.4 3.3 3.0 3.5 2.9 2.4 2.2 1.1 1.3 1.4 1.1 1.2 2.5 3.2 3.0 2.9 3.3 2.6 2.4 3.2 2.9 2.3 2.0 1.5 1.2
6.5 6.5 6.5 6.5 6.5 6.5 6.5 6.5 6.5 6.5 6.5 6.5 5.4 3.3 3.8 0.8 -1.9 -0.3 -0.4 0.0 0.2 0.4 1.6 2.0 2.1 2.1 2.1 2.7 2.1 2.4 2.5 2.3 3.4 3.3 2.8 3.1 3.0 2.4 2.4 2.9 2.4 2.1 1.9 1.0
6.5 6.5 6.5 6.5 6.5 6.4 6.5 6.5 6.5 6.5 6.5 6.5 6.2 6.5 6.5 3.0 0.6 0.9 1.3 1.2 1.0 0.3 1.2 1.5 2.1 1.7 2.0 2.8 2.9 3.5 3.5 3.6 3.6 3.8 3.2 2.9 2.8 2.5 2.5 3.4 3.4 3.2 2.1 1.6
6.5 6.5 6.5 6.5 6.3 6.0 6.5 6.5 6.2 6.0 6.1 5.9 6.5 5.6 3.6 3.2 2.5 2.5 2.4 1.6 1.4 0.5 1.6 2.0 1.8 1.7 2.8 2.8 3.5 3.8 4.1 4.4 4.3 4.0 3.6 3.0 3.1 3.4 2.9 3.0 3.9 3.2 2.5 1.7
6.5 6.5 6.5 5.5 6.3 6.5 6.2 4.6 5.4 4.9 6.1 5.4 4.7 4.8 4.0 3.7 3.2 3.1 2.3 1.9 1.9 1.1 1.3 1.9 1.9 2.1 2.9 3.0 3.1 3.0 3.7 4.4 4.4 3.9 4.4 4.2 2.3 4.1 2.9 3.8 4.2 3.7 3.3 3.2
6.5 6.5 5.1 2.8 2.5 1.4 1.5 2.8 3.6 5.1 4.7 4.3 4.1 4.5 5.0 3.9 3.5 3.5 2.7 2.2 1.7 1.6 1.7 1.3 1.5 1.6 2.6 3.0 2.7 2.6 2.7 3.3 4.2 4.2 4.5 3.9 4.1 3.2 5.1 5.7 5.5 5.4 4.3 4.3
6.5 6.5 6.4 3.2 1.9 3.1 0.4 1.8 3.3 2.9 2.8 3.3 4.0 4.8 3.7 2.8 2.2 1.6 2.1 1.1 1.7 1.4 1.3 1.6 1.0 2.6 2.1 2.3 2.3 2.4 2.7 2.9 3.8 4.2 4.7 3.9 5.1 5.4 5.8 6.4 7.1 7.6 7.4 5.6
6.5 6.4 4.1 3.7 3.3 2.4 2.8 3.0 2.9 3.1 2.4 2.6 2.2 2.5 3.5 2.1 1.6 1.1 -0.1 -1.8 -1.4 0.0 0.7 1.4 1.1 1.3 1.3 2.0 1.8 2.7 2.8 3.3 3.6 4.5 3.3 4.2 4.8 5.5 6.5 6.9 8.7 7.9 7.5 7.4
6.5 6.1 6.3 6.1 3.6 2.5 4.3 4.7 4.7 4.4 3.0 2.9 2.2 2.1 2.3 1.3 1.5 -0.1 -0.8 -2.6 -2.2 -1.4 -1.7 -0.8 -0.2 0.9 1.2 1.4 1.7 2.2 2.9 4.3 4.0 3.6 3.0 4.4 4.4 5.1 6.6 7.8 8.7 9.4 9.4 9.2
6.5 5.9 6.4 6.5 6.3 6.0 5.6 6.0 4.4 3.7 3.6 3.3 0.1 1.0 0.8 0.2 -0.0 0.1 -3.0 -3.8 -3.4 -2.7 -3.5 -4.0 -1.8 -0.7 -0.6 -0.2 1.1 2.2 2.4 3.2 3.4 3.7 3.4 3.5 4.1 4.4 4.6 5.7 6.5 6.9 9.0 9.3
6.5 6.5 6.5 6.2 6.2 4.5 4.3 4.1 4.3 3.6 1.8 0.2 0.8 1.1 0.2 -0.9 -1.9 -1.0 -1.3 -2.1 -4.0 -5.2 -5.8 -5.6 -3.6 -2.1 -2.6 -2.6 -0.5 -0.4 0.4 4.4 3.4 3.1 3.9 4.3 4.7 4.7 4.8 4.4 4.4 4.6 5.4 6.9
6.2 5.4 5.8 5.5 5.7 5.2 4.9 4.4 3.5 2.9 2.5 1.9 1.6 1.4 0.3 -0.5 -0.7 -0.4 -2.1 -3.6 -2.9 -5.7 -6.7 -5.2 -4.1 -3.0 -5.2 -4.2 -1.1 -2.4 -0.3 0.4 1.1 2.3 3.3 4.8 5.0 4.8 4.6 4.6 4.2 4.1 4.5 4.9
5.5 5.1 5.5 5.1 5.0 5.1 3.8 3.3 3.3 4.2 4.1 3.7 2.9 2.5 2.2 0.7 0.1 -0.1 -1.3 -3.4 -1.9 -1.7 -3.8 -3.9 -2.5 -3.0 -5.0 -4.8 -2.3 -1.9 -2.1 3.1 4.1 2.8 3.5 4.4 4.4 4.6 4.4 4.1 3.9 4.3 4.7 4.9
6.4 6.5 5.9 5.8 5.6 5.3 4.6 4.8 4.9 5.0 4.6 4.1 3.9 3.4 2.3 1.2 0.9 0.0 -0.8 -2.1 -2.6 -4.6 -4.7 -2.9 -2.0 -1.6 -2.6 -3.4 -3.4 -1.2 -0.4 0.6 5.1 3.3 3.3 3.9 4.1 4.4 4.2 4.3 4.2 4.1 4.1 5.9
5.6 6.5 5.6 5.5 6.0 6.4 6.5 6.4 5.9 6.1 5.5 4.8 4.0 3.3 2.6 1.6 2.0 1.6 -0.3 -2.2 -2.3 -2.0 -3.0 -2.9 -3.1 -1.1 -1.2 -1.4 -1.6 -1.1 0.0 0.6 1.9 3.2 3.5 3.6 4.0 3.6 3.5 3.8 3.8 4.1 3.9 4.8
7.4 7.1 7.0 6.9 6.9 6.9 6.9 6.8 6.3 6.3 5.1 3.6 2.7 2.9 3.0 2.3 1.9 0.7 -1.0 -1.4 -1.3 0.4 0.3 -1.4 2.9 2.6 0.4 0.4 1.1 0.1 1.2 1.7 1.9 2.5 3.3 5.5 5.2 4.1 4.0 3.7 4.1 4.0 3.9 5.0
6.7 6.9 6.7 6.5 6.0 5.7 6.0 5.7 5.0 3.5 2.4 1.4 1.8 1.6 1.8 1.3 1.2 0.6 0.7 1.0 1.5 1.2 1.6 2.3 1.3 1.2 1.0 1.8 6.0 1.8 1.8 1.9 2.3 2.5 3.2 3.9 4.8 4.9 4.4 5.4 5.6 4.7 4.6 5.4
5.7 5.7 5.5 5.6 5.5 4.9 5.3 3.7 2.1 2.0 2.0 2.1 2.9 2.3 2.0 1.7 2.1 1.8 1.8 1.8 2.6 4.5 3.5 5.4 2.4 2.5 3.6 4.2 4.5 2.7 2.7 2.9 2.6 2.7 4.0 5.0 5.3 5.5 5.0 4.8 4.8 4.9 5.1 5.1
5.9 5.7 5.5 5.5 6.0 4.8 2.7 2.2 2.4 2.8 3.4 3.2 2.5 2.2 2.1 2.1 2.5 2.6 2.8 2.9 3.3 6.8 4.2 4.1 4.5 5.0 4.9 7.8 4.0 3.4 3.3 4.0 4.2 4.0 4.0 4.5 5.0 5.1 4.9 4.7 4.6 4.9 4.9 4.4
6.1 5.9 5.9 5.1 4.3 3.2 2.5 2.5 2.5 3.0 3.2 3.1 2.8 2.9 3.4 3.2 3.2 3.3 3.5 4.2 5.0 6.5 2.9 3.7 6.2 8.2 7.9 2.9 3.6 4.0 4.1 4.0 3.9 3.8 3.8 4.0 4.4 4.2 4.0 4.0 4.3 4.0 3.7 3.7
6.9 5.9 4.7 4.0 2.7 2.4 2.3 2.9 2.6 2.6 2.8 3.2 3.4 3.5 3.3 3.1 3.4 3.5 4.6 7.6 8.5 6.5 5.0 5.4 8.4 7.2 4.6 1.4 2.5 2.8 3.0 3.0 2.8 2.3 2.4 4.6 2.1 2.1 2.1 2.1 2.0 2.2 2.0 2.1
6.1 5.3 4.1 4.1 4.1 4.5 3.8 3.5 3.1 3.0 2.9 2.9 3.1 3.5 3.7 3.6 3.5 2.9 2.3 6.1 8.5 4.9 5.2 9.0 7.4 5.6 0.2 1.9 1.9 1.6 1.5 1.3 1.6 1.6 1.3 1.5 1.1 0.4 0.4 0.4 0.1 0.1 0.2 0.4
6.1 6.0 5.3 5.0 5.1 5.1 4.7 4.6 4.2 4.3 4.2 3.7 3.2 3.0 2.8 3.0 4.3 2.8 4.1 4.6 3.8 4.7 2.2 2.1 1.8 1.4 1.0 0.6 0.2 0.1 -0.0 -0.0 0.1 -0.1 1.7 0.4 -0.2 -0.8 -0.7 -0.4 -0.6 -0.5 -0.3 -0.6
6.0 7.7 5.7 5.5 5.4 5.5 5.3 5.0 5.0 4.4 4.1 3.5 2.6 2.8 2.9 3.4 4.7 3.9 4.0 2.5 2.3 2.0 1.8 1.5 0.9 1.8 0.3 0.0 -0.7 -1.1 -1.1 -1.2 0.8 1.0 -0.7 -2.1 -2.5 -2.4 -1.6 -0.8 -0.1 -0.1 -0.5 -1.1
Wind_Speed
12 14 12 18 16 13 14 16 9 6 12 17 7 7 12 6 7 6 4 3 5 4 5 5 5 5 5 7 8 9 10 11 14 15 14 14 12 12 11 9 9 9 10 11
7 12 13 15 19 18 19 13 13 15 25 19 20 3 6 8 6 7 6 3 5 5 5 5 4 5 5 6 8 8 9 10 12 15 15 14 13 10 8 7 10 11 11 11
5 4 10 9 11 18 10 6 9 10 12 2 8 6 6 7 6 8 7 5 6 6 5 4 4 3 5 6 6 7 8 10 11 13 14 15 13 12 12 12 12 13 11 11
4 6 3 3 2 5 14 8 17 10 9 8 8 5 9 9 9 7 7 5 5 5 5 4 3 3 4 5 6 7 8 10 10 11 13 14 13 13 11 10 12 11 12 13
1 2 8 9 3 5 6 4 15 15 15 15 3 4 7 5 6 5 5 5 4 5 4 4 3 3 3 5 5 6 9 9 10 10 11 13 13 14 12 12 12 11 11 13
2 3 5 3 1 2 2 4 4 12 8 5 3 2 4 4 5 7 6 4 5 6 4 4 4 3 3 3 5 7 8 9 8 8 8 11 11 11 11 8 10 8 11 12
7 5 8 8 5 3 2 1 2 5 3 2 4 5 2 2 4 3 4 6 4 6 6 6 5 4 3 4 4 4 7 8 9 8 8 7 9 8 9 10 10 11 11 12
4 5 9 6 4 7 3 3 4 5 7 10 8 8 6 6 6 6 6 5 6 5 6 5 5 4 3 3 4 4 5 7 8 9 8 7 8 9 9 9 10 11 11 10
10 7 3 6 5 1 2 3 3 2 4 1 5 6 6 6 7 6 6 5 5 6 5 5 5 5 4 3 1 4 6 5 6 8 9 8 7 8 6 7 9 10 10 8
2 6 16 8 7 4 4 3 3 2 4 3 6 7 8 6 4 4 4 4 4 5 6 6 5 6 5 3 2 1 3 6 5 6 7 7 6 6 6 6 7 7 8 8
12 8 11 4 4 4 4 4 3 4 5 5 4 8 6 4 5 4 4 3 2 5 5 6 6 5 5 4 3 1 1 2 4 5 5 6 6 5 5 6 9 6 6 7
9 13 9 12 6 2 4 4 5 6 5 6 5 8 5 7 4 3 4 3 3 4 4 4 5 5 5 4 4 2 2 2 2 3 4 5 5 5 12 14 16 18 19 15
7 8 15 14 9 11 13 12 8 7 7 9 5 7 4 4 2 3 3 4 4 5 4 2 5 5 4 4 4 3 2 2 2 2 2 3 4 6 6 7 13 16 19 20
13 11 9 10 5 2 4 6 7 6 7 6 7 3 4 4 3 4 5 4 3 3 3 3 4 5 4 4 3 2 2 4 0 0 1 1 3 4 4 6 7 7 10 15
13 12 10 9 5 10 9 6 6 6 5 5 4 5 4 5 5 5 3 3 3 4 2 3 3 3 4 4 4 3 2 1 2 1 1 1 2 3 4 5 5 5 5 9
16 10 6 4 6 5 3 7 4 8 7 6 6 5 7 4 3 1 2 4 4 3 4 4 3 2 4 4 4 3 2 4 4 2 1 1 1 2 2 3 4 5 5 6
19 21 19 16 13 13 8 7 7 9 9 7 7 5 3 3 3 3 2 3 3 2 3 5 4 3 4 3 3 2 1 1 4 2 2 2 2 1 1 2 2 3 3 6
7 11 10 10 10 12 13 12 10 11 10 6 4 3 4 4 3 4 4 5 4 3 2 4 3 3 3 3 3 2 2 1 1 1 1 2 1 2 1 1 1 2 2 4
12 13 13 11 11 12 11 10 10 10 4 3 3 4 4 4 4 5 5 5 4 4 1 3 6 5 3 4 4 2 2 2 2 1 1 2 0 1 1 1 0 1 2 3
14 12 12 14 14 12 12 10 8 5 4 1 4 5 5 4 6 6 4 5 4 3 5 5 5 4 3 3 5 3 2 2 1 1 1 2 1 1 1 2 1 1 2 3
14 14 14 13 13 13 11 7 5 3 2 2 4 5 5 5 6 6 6 4 2 5 5 7 3 2 1 2 4 3 3 2 1 1 1 1 1 1 1 1 2 2 3 2
12 12 12 11 11 10 6 5 4 2 3 4 5 6 7 7 6 5 3 3 3 9 4 2 1 3 4 7 3 3 2 2 1 1 0 0 0 1 2 2 3 3 3 3
11 10 10 9 7 6 5 4 4 3 4 4 5 5 5 4 3 5 4 1 3 6 2 1 6 7 13 4 3 3 3 3 3 2 2 2 2 2 2 2 3 3 3 4
11 11 9 7 5 3 3 4 4 5 5 6 6 5 6 5 3 2 4 9 8 7 3 4 9 12 11 4 4 4 3 3 2 2 3 4 2 2 2 3 4 4 4 7
10 7 5 7 7 4 3 3 4 5 7 7 6 5 5 3 3 1 2 3 11 7 4 12 10 10 4 4 3 3 2 2 1 2 2 2 3 3 3 4 4 5 5 5
10 6 4 5 4 3 2 2 3 3 4 5 4 3 4 3 4 4 4 8 5 9 4 4 4 4 3 3 2 2 2 3 3 3 3 3 3 3 4 5 5 6 6 6
8 13 5 5 4 4 1 1 2 2 3 3 4 3 3 3 5 5 7 4 4 4 3 3 3 4 2 2 2 2 2 2 4 3 2 3 3 4 5 5 6 6 5 6
Wind_Direction
258 271 250 258 248 184 203 213 220 245 226 267 240 260 283 276 292 291 287 239 222 234 262 275 297 314 322 320 326 336 334 335 337 332 333 336 339 341 351 355 14 27 38 43
278 257 252 259 255 228 217 233 260 262 277 268 270 288 277 269 283 282 276 236 201 217 243 279 290 307 318 322 326 335 336 341 339 341 344 338 344 352 353 4 30 35 41 37
261 4 306 268 253 211 182 194 204 213 234 290 280 260 263 274 250 263 265 237 202 201 216 258 292 316 319 320 320 337 341 342 347 347 346 343 343 353 1 18 33 38 37 34
273 347 271 245 169 195 198 215 208 251 256 244 250 266 270 250 247 255 244 241 200 184 191 234 281 308 314 331 337 337 343 346 350 351 349 348 350 352 1 21 30 32 29 30
227 233 302 282 174 143 184 272 212 221 252 266 274 296 287 221 201 220 214 234 208 178 182 192 241 286 330 341 340 346 347 342 346 347 347 351 355 354 356 18 24 26 31 28
136 235 249 257 214 124 129 278 153 181 227 261 159 314 265 218 197 213 229 225 193 183 175 189 225 236 311 341 344 349 345 335 335 345 348 357 346 355 355 10 24 24 34 29
225 258 278 254 153 154 154 90 139 183 276 174 215 218 261 321 245 231 220 212 199 170 183 198 183 182 275 319 340 337 336 342 347 353 345 356 347 358 1 6 24 31 36 28
185 214 274 144 72 174 188 314 122 168 254 247 235 280 272 250 247 252 240 203 194 190 201 191 180 178 215 281 313 344 353 352 352 353 2 357 356 358 357 21 25 24 35 39
195 215 253 231 209 318 46 190 296 273 298 269 292 273 279 278 250 243 240 212 190 195 204 197 187 182 199 233 277 341 348 5 357 353 8 1 358 356 9 18 31 32 29 25
269 245 250 251 268 233 198 217 268 289 287 267 265 292 287 280 253 259 252 229 192 184 198 207 197 196 204 188 163 36 347 341 352 8 11 4 7 3 9 18 31 40 43 21
270 301 286 272 217 217 217 221 254 220 231 248 263 280 267 273 272 258 251 252 195 201 203 206 186 197 194 186 175 281 339 344 353 2 8 7 10 358 19 12 31 35 33 33
276 294 295 288 288 220 277 264 263 268 272 238 221 260 268 277 253 239 256 244 226 224 215 200 189 184 183 170 168 191 311 346 353 16 0 12 13 16 27 38 38 37 32 37
277 277 277 271 282 267 258 265 241 239 242 265 240 230 234 260 272 269 206 237 243 238 238 172 195 180 170 165 167 185 222 292 324 39 17 8 14 24 23 18 36 34 37 29
283 294 286 247 244 244 246 248 250 270 247 234 258 251 232 247 275 252 241 220 201 230 246 188 178 183 159 153 154 161 200 271 157 170 20 28 27 32 33 32 24 20 14 31
323 300 276 284 280 278 258 243 237 295 297 293 224 254 224 244 238 239 217 173 178 167 192 174 172 210 160 156 148 164 198 237 214 236 263 219 60 59 50 44 31 17 6 24
325 307 300 280 280 287 271 17 340 292 289 283 280 254 246 219 185 174 129 146 157 206 190 179 187 220 145 142 137 153 209 238 206 186 167 133 102 87 70 56 44 27 13 357
345 346 341 343 348 353 349 304 279 284 290 269 266 272 186 161 140 140 151 150 153 74 167 156 188 150 140 152 159 144 166 244 230 146 162 160 142 126 106 71 47 31 11 347
294 313 298 289 309 325 325 318 310 303 284 265 260 200 179 172 163 136 137 131 119 94 142 187 154 148 163 159 171 156 153 152 153 133 150 166 172 153 144 103 37 9 353 354
328 325 329 325 323 319 316 312 302 297 288 279 181 177 176 150 119 104 122 124 127 122 208 167 182 160 177 187 170 158 147 146 147 159 205 241 75 158 169 181 262 316 329 345
328 328 325 322 324 324 314 304 299 309 313 150 117 112 121 113 110 117 129 123 143 148 132 143 109 122 159 216 131 146 149 148 144 168 204 190 179 192 245 276 268 301 319 320
324 326 322 323 321 322 315 321 319 339 10 84 134 136 122 110 110 120 116 109 145 136 142 117 134 145 139 141 114 138 136 122 143 184 137 86 77 127 234 292 313 308 305 300
319 317 316 318 324 324 342 337 343 42 78 88 94 111 112 105 103 85 56 131 167 124 111 113 149 212 196 128 122 124 126 133 106 114 163 230 272 300 306 314 308 309 306 304
315 311 315 317 317 301 320 356 360 41 85 98 108 109 110 111 110 120 114 185 106 124 93 269 213 75 90 86 91 91 88 81 78 76 66 57 46 32 1 335 323 329 322 311
324 324 324 323 310 345 15 12 29 44 65 72 81 96 118 114 69 37 150 142 132 112 109 99 88 84 84 68 72 72 68 69 62 59 41 48 19 349 335 323 311 307 301 303
325 317 317 343 350 9 41 57 61 57 65 65 63 62 71 42 111 111 72 106 102 67 38 109 93 81 67 68 71 69 53 25 75 75 8 339 320 306 300 296 286 282 275 273
336 331 343 349 351 359 38 56 80 81 90 88 61 52 61 58 94 88 82 89 70 83 65 74 81 73 75 88 77 59 38 13 5 334 319 307 296 294 291 288 279 276 273 270
347 360 10 4 8 3 10 94 100 82 99 99 96 55 72 87 111 94 93 77 76 75 74 65 53 100 123 88 63 31 4 342 318 283 297 294 284 273 272 272 273 271 269 266